GOES 13 [B]

Last updated on Sept. 9, 2020, 5:41 a.m. UTC

1 29155U 06018A   20252.76385626  .00000037  00000-0  00000-0 0  9991
2 29155   0.0803 152.3982 0008446  50.8254 121.2897  1.00273994 22235
UTC
Height (km)
Latitude
Longitude
Inclination
Orbital Period
UTC large
Height (km)
Speed (km/s)
/
Latitude / Longitude
Inclination (degrees)
Orbital Period (minutes)
Azimuth
Elevation
Range (km)
Doppler Factor
iOS Compass Heading
iOS Angle

Next 30 passes for location: Hong Kong

Rise time Rise Azimuth (degrees) Set time Set Azimuth (degrees) Duration Max altitude (degrees)

No matching passes for this satellites